Weather History for West Plains, MO

Change the Weather History Date:

Tuesday, March 19, 2013

  Actual Average Record
Temperature  
Mean Temperature 41 °F 49 °F  
Max Temperature 52 °F 61 °F 81 °F (1969)
Min Temperature 29 °F 37 °F 12 °F (1965)
Degree Days  
Heating Degree Days 24 16  
Month to date heating degree days 441 375  
Since 1 July heating degree days 3753 3839  
Cooling Degree Days 0 0  
Month to date cooling degree days 0 0  
Year to date cooling degree days 0 0  
Moisture  
Dew Point 19 °F    
Average Humidity 46    
Maximum Humidity 70    
Minimum Humidity 22    
Precipitation  
Precipitation 0.00 in 0.14 in 2.71 in (2002)
Month to date precipitation 2.64 2.46  
Year to date precipitation 9.96 8.02  
Sea Level Pressure  
Sea Level Pressure 30.18 in    
Wind  
Wind Speed 5 mph (North)    
Max Wind Speed 17 mph    
Max Gust Speed 21 mph    
Visibility 10 miles    
Events      
T = Trace of Precipitation, MM = Missing Value Source: NWS Daily Summary

Daily Weather History Graph

Daily Weather History Graph

Search for Another Location

Airport:

Trip Planner

Search our weather history database for the weather conditions in past years. The results will help you decide how hot, cold, wet, or windy it might be!

Date:

Astronomy

Mar. 19, 2013 Rise Set
Actual Time 7:12 AM CDT 7:18 PM CDT
Civil Twilight 6:46 AM CDT 7:44 PM CDT
Nautical Twilight 6:16 AM CDT 8:14 PM CDT
Astronomical Twilight 5:45 AM CDT 8:45 PM CDT
Moon 12:10 PM CDT (3/19) 1:57 AM CDT (3/19)
Length of Visible Light 12h 58m
Length of Day
12h 06m
Waxing Crescent, 50% of the Moon is Illuminated
Mar 19
Waxing Crescent
Mar 19
First Quarter
Mar 27
Full
Apr 2
Last Quarter
Apr 10
New

Hourly Weather History & Observations

Time (CDT) Temp. Windchill Dew Point Humidity Pressure Visibility Wind Dir Wind Speed Gust Speed Precip Events Conditions
1:53 AM 37.9 °F 34.4 °F 25.0 °F 60% 30.06 in 10.0 mi North 4.6 mph - N/A   Clear
2:53 AM 35.1 °F 31.0 °F 25.0 °F 67% 30.09 in 10.0 mi NE 4.6 mph - N/A   Clear
3:53 AM 34.0 °F 29.8 °F 23.0 °F 64% 30.11 in 10.0 mi North 4.6 mph - N/A   Clear
4:53 AM 32.0 °F 24.8 °F 19.9 °F 61% 30.09 in 10.0 mi North 8.1 mph - N/A   Clear
5:53 AM 32.0 °F 27.5 °F 16.0 °F 52% 30.10 in 10.0 mi North 4.6 mph - N/A   Clear
6:53 AM 30.9 °F - 16.0 °F 54% 30.12 in 10.0 mi Calm Calm - N/A   Clear
7:53 AM 30.9 °F - 19.0 °F 61% 30.15 in 10.0 mi Calm Calm - N/A   Clear
8:53 AM 37.0 °F 32.4 °F 16.0 °F 42% 30.18 in 10.0 mi North 5.8 mph - N/A   Clear
9:53 AM 42.1 °F 37.7 °F 15.1 °F 34% 30.20 in 10.0 mi NNW 6.9 mph - N/A   Scattered Clouds
10:53 AM 44.1 °F 40.8 °F 10.9 °F 26% 30.21 in 10.0 mi Variable 5.8 mph - N/A   Mostly Cloudy
11:53 AM 44.1 °F 40.8 °F 9.0 °F 24% 30.23 in 10.0 mi WNW 5.8 mph - N/A   Overcast
12:53 PM 48.0 °F - 12.0 °F 24% 30.22 in 10.0 mi Variable 3.5 mph - N/A   Mostly Cloudy
1:53 PM 50.0 °F - 15.1 °F 25% 30.20 in 10.0 mi Variable 3.5 mph - N/A   Mostly Cloudy
2:53 PM 50.0 °F - 15.1 °F 25% 30.18 in 10.0 mi Calm Calm - N/A   Scattered Clouds
3:53 PM 51.1 °F - 17.1 °F 26% 30.17 in 10.0 mi NE 3.5 mph - N/A   Mostly Cloudy
4:53 PM 50.0 °F - 21.0 °F 32% 30.19 in 10.0 mi North 9.2 mph - N/A   Overcast
5:53 PM 48.0 °F - 21.0 °F 34% 30.19 in 10.0 mi NNE 8.1 mph - N/A   Overcast
7:53 PM 43.0 °F 35.1 °F 23.0 °F 45% 30.22 in 10.0 mi NNE 17.3 mph - N/A   Overcast
8:53 PM 41.0 °F 35.8 °F 26.1 °F 55% 30.24 in 10.0 mi NNE 8.1 mph - N/A   Overcast
9:53 PM 39.0 °F 36.8 °F 27.0 °F 62% 30.24 in 10.0 mi NNW 3.5 mph - N/A   Mostly Cloudy
10:53 PM 37.9 °F - 28.0 °F 68% 30.23 in 10.0 mi Calm Calm - N/A   Overcast
11:53 PM 35.1 °F 32.2 °F 27.0 °F 72% 30.24 in 10.0 mi West 3.5 mph - N/A   Clear